Regional Weather Roundup
Issued by NWS

Home | Current Version | Previous Version | Graphics & Text | Print | Product List | Glossary On
Versions: 1 2 3 4 5 6 7 8 9 10 11 12 13 14 15 16 17 18 19 20 21 22 23 24 25 26 27 28 29 30 31 32 33 34 35 36 37 38 39 40 41 42 43 44 45 46 47 48 49 50
000
ASUS43 KIND 041659
RWRIN

WEATHER ROUNDUP FOR INDIANA
NATIONAL WEATHER SERVICE INDIANAPOLIS IN
1200 PM EST WED MAR 04 2015

NOTE: "FAIR" INDICATES FEW OR NO CLOUDS BELOW 12,000 FEET WITH NO
SIGNIFICANT WEATHER AND/OR OBSTRUCTIONS TO VISIBILITY.

* - STATION DOES NOT REPORT WEATHER SUCH AS PRECIPITATION OR FOG.

+ - STATION NOT QUALITY CONTROLLED BY THE NATIONAL WEATHER SERVICE.
    USE DATA WITH CAUTION...ESPECIALLY DEWPOINT AND RELATIVE
    HUMIDITY OBSERVATIONS.

INZ001>003-010>013-019-020-041800-
NORTHWEST INDIANA

CITY           SKY/WX    TMP DP  RH WIND       PRES   REMARKS
GARY /AIRPORT/ CLOUDY    25  10  54 W12       30.12R WCI  14
MONTICELLO +   CLOUDY    22  17  81 NW12      30.07R WCI  11
VALPARAISO     NOT AVBL

$$

LMZ046-743>745-041800-
SOUTHERN LAKE MICHIGAN

STATION/POSITION TIME  TEMP WIND        PRES
                       AIR  DIR/SP/G
                 (UTC) (F)  (DEG/KT/KT) (MB)
MICHIGAN CITY    1600   23  300/ 15/ 19   N/A

$$

INZ004-005-014>016-021>024-041800-
NORTH CENTRAL INDIANA

CITY           SKY/WX    TMP DP  RH WIND       PRES   REMARKS
ELKHART        CLOUDY    27  16  63 NW12      30.04R WCI  16
GOSHEN         CLOUDY    28  20  71 W14       30.01S WCI  17
SOUTH BEND     CLOUDY    25  16  68 NW14      30.06R WCI  13

$$

INZ006>009-017-018-025>027-041800-
NORTHEAST INDIANA

CITY           SKY/WX    TMP DP  RH WIND       PRES   REMARKS
ANGOLA *+      MOSUNNY   28  18  64 NW14      29.98R WCI  17
FORT WAYNE     CLOUDY    33  23  66 NW9       30.01R WCI  25

$$

INZ028-029-035-036-043>045-051>053-041800-
WEST CENTRAL INDIANA

CITY           SKY/WX    TMP DP  RH WIND       PRES   REMARKS
CRAWFORDSVL +  CLOUDY    21  12  69 NW13      30.08F WCI   9
GREENCASTLE +  CLOUDY    28  19  69 N9        30.07F WCI  20
LAFAYETTE      CLOUDY    20  15  81 NW14      30.10R WCI   7
TERRE HAUTE    CLOUDY    22  15  75 NW14      30.11R WCI   9

$$

INZ030>032-037>040-046>048-054>057-064-065-041800-
CENTRAL INDIANA

CITY           SKY/WX    TMP DP  RH WIND       PRES   REMARKS
ANDERSON       CLOUDY    30  25  80 W12       30.04R WCI  21
INDIANAPOLIS   CLOUDY    29  23  78 NW12      30.03R WCI  19
-EAGLE CREEK   CLOUDY    27  22  81 NW9       30.04F WCI  18
KOKOMO *+      CLOUDY    28  25  86 W15       30.03S WCI  17
MT COMFORT *+  CLOUDY    32  21  64 NW9       30.04S WCI  24
SHELBYVILLE    CLOUDY    35  27  72 NW9       30.04R HAZE    WCI  28

$$

INZ033-034-041-042-049-050-058-059-041800-
EAST CENTRAL INDIANA

CITY           SKY/WX    TMP DP  RH WIND       PRES   REMARKS
MUNCIE         CLOUDY    31  25  78 NW10      30.02R HAZE    WCI  22

$$

INZ060-061-067>069-081>083-085>088-041800-
SOUTHWEST INDIANA

CITY           SKY/WX    TMP DP  RH WIND       PRES   REMARKS
EVANSVILLE     LGT RAIN  33  29  85 NW9       30.11R FOG     WCI  25
HUNTINGBURG *+ CLOUDY    34  28  80 N8        30.07S WCI  27

$$

INZ062-063-066-070>080-084-089>092-041800-
SOUTH CENTRAL AND SOUTHEAST INDIANA

CITY           SKY/WX    TMP DP  RH WIND       PRES   REMARKS
BLOOMINGTON    CLOUDY    32  28  85 N9        30.05R FOG     WCI  24

$$



USA.gov is the U.S. government's official web portal to all federal, state and local government web resources and services.